TimeEST,TemperatureF,Dew PointF,Humidity,Sea Level PressureIn,VisibilityMPH,Wind Direction,Wind SpeedMPH,Gust SpeedMPH,PrecipitationIn,Events,Conditions,WindDirDegrees,DateUTC
12:15 AM,42.8,21.2,42,30.13,10.0,NW,4.6,-,N/A,,Clear,310,2012-11-09 05:15:00
12:35 AM,39.2,21.2,49,30.14,10.0,Calm,Calm,-,N/A,,Clear,0,2012-11-09 05:35:00
12:55 AM,37.4,23.0,56,30.13,10.0,Calm,Calm,-,N/A,,Clear,0,2012-11-09 05:55:00
1:15 AM,35.6,21.2,56,30.13,10.0,NNW,3.5,-,N/A,,Clear,330,2012-11-09 06:15:00
1:35 AM,37.4,21.2,52,30.13,10.0,NW,4.6,-,N/A,,Clear,320,2012-11-09 06:35:00
1:55 AM,37.4,21.2,52,30.14,10.0,NW,3.5,-,N/A,,Clear,310,2012-11-09 06:55:00
2:15 AM,37.4,23.0,56,30.15,10.0,NW,3.5,-,N/A,,Clear,320,2012-11-09 07:15:00
2:35 AM,37.4,23.0,56,30.15,10.0,NW,3.5,-,N/A,,Clear,320,2012-11-09 07:35:00
2:55 AM,37.4,23.0,56,30.15,10.0,NW,3.5,-,N/A,,Clear,320,2012-11-09 07:55:00
3:15 AM,35.6,21.2,56,30.15,10.0,Calm,Calm,-,N/A,,Clear,0,2012-11-09 08:15:00
3:35 AM,33.8,21.2,60,30.16,10.0,Calm,Calm,-,N/A,,Clear,0,2012-11-09 08:35:00
3:55 AM,33.8,23.0,65,30.16,10.0,Calm,Calm,-,N/A,,Clear,0,2012-11-09 08:55:00
4:15 AM,33.8,23.0,65,30.17,10.0,Calm,Calm,-,N/A,,Clear,0,2012-11-09 09:15:00
4:35 AM,32.0,23.0,69,30.18,10.0,Calm,Calm,-,N/A,,Clear,0,2012-11-09 09:35:00
4:55 AM,32.0,23.0,69,30.18,10.0,Calm,Calm,-,N/A,,Clear,0,2012-11-09 09:55:00
5:15 AM,32.0,23.0,69,30.18,10.0,Calm,Calm,-,N/A,,Clear,0,2012-11-09 10:15:00
5:35 AM,32.0,21.2,64,30.18,10.0,Calm,Calm,-,N/A,,Clear,0,2012-11-09 10:35:00
5:55 AM,30.2,23.0,75,30.19,10.0,Calm,Calm,-,N/A,,Clear,0,2012-11-09 10:55:00
6:15 AM,32.0,24.8,75,30.20,10.0,NW,3.5,-,N/A,,Clear,310,2012-11-09 11:15:00
6:35 AM,30.2,23.0,75,30.20,10.0,WNW,3.5,-,N/A,,Clear,300,2012-11-09 11:35:00
6:55 AM,33.8,24.8,70,30.21,10.0,Calm,Calm,-,N/A,,Clear,0,2012-11-09 11:55:00
7:15 AM,32.0,24.8,75,30.22,10.0,Calm,Calm,-,N/A,,Clear,0,2012-11-09 12:15:00
7:35 AM,35.6,26.6,70,30.23,10.0,Calm,Calm,-,N/A,,Clear,0,2012-11-09 12:35:00
7:55 AM,41.0,26.6,57,30.24,10.0,Calm,Calm,-,N/A,,Clear,0,2012-11-09 12:55:00
8:15 AM,42.8,26.6,53,30.25,10.0,Calm,Calm,-,N/A,,Clear,0,2012-11-09 13:15:00
8:35 AM,46.4,28.4,50,30.25,10.0,NNE,3.5,-,N/A,,Clear,20,2012-11-09 13:35:00
8:55 AM,48.2,28.4,46,30.25,10.0,Calm,Calm,-,N/A,,Clear,0,2012-11-09 13:55:00
9:15 AM,51.8,28.4,41,30.26,10.0,NNE,4.6,-,N/A,,Clear,20,2012-11-09 14:15:00
9:55 AM,57.2,28.4,33,30.26,10.0,NE,5.8,-,N/A,,Clear,50,2012-11-09 14:55:00
10:15 AM,57.2,26.6,31,30.26,10.0,NNE,6.9,-,N/A,,Clear,30,2012-11-09 15:15:00
10:35 AM,59.0,26.6,29,30.26,10.0,NNE,5.8,-,N/A,,Clear,30,2012-11-09 15:35:00
10:55 AM,60.8,26.6,27,30.26,10.0,Calm,Calm,-,N/A,,Clear,0,2012-11-09 15:55:00
11:15 AM,60.8,26.6,27,30.25,10.0,NNE,5.8,-,N/A,,Clear,30,2012-11-09 16:15:00
11:35 AM,62.6,26.6,26,30.25,10.0,North,5.8,-,N/A,,Clear,350,2012-11-09 16:35:00
11:55 AM,62.6,28.4,27,30.24,10.0,Calm,Calm,-,N/A,,Clear,0,2012-11-09 16:55:00
12:15 PM,64.4,28.4,26,30.23,10.0,NW,8.1,-,N/A,,Clear,310,2012-11-09 17:15:00
12:35 PM,64.4,26.6,24,30.22,10.0,NNW,3.5,-,N/A,,Clear,340,2012-11-09 17:35:00
12:55 PM,64.4,28.4,26,30.21,10.0,NW,3.5,-,N/A,,Clear,310,2012-11-09 17:55:00
1:15 PM,64.4,26.6,24,30.20,10.0,ESE,3.5,-,N/A,,Clear,120,2012-11-09 18:15:00
1:35 PM,66.2,26.6,23,30.20,10.0,NNW,4.6,-,N/A,,Clear,340,2012-11-09 18:35:00
1:55 PM,66.2,26.6,23,30.19,10.0,WNW,4.6,-,N/A,,Clear,290,2012-11-09 18:55:00
2:15 PM,66.2,26.6,23,30.19,10.0,WSW,3.5,-,N/A,,Clear,250,2012-11-09 19:15:00
2:35 PM,68.0,24.8,20,30.19,10.0,NNW,5.8,-,N/A,,Clear,340,2012-11-09 19:35:00
2:55 PM,66.2,24.8,21,30.19,10.0,Calm,Calm,-,N/A,,Clear,0,2012-11-09 19:55:00
3:15 PM,66.2,24.8,21,30.19,10.0,NW,4.6,-,N/A,,Clear,310,2012-11-09 20:15:00
3:35 PM,66.2,24.8,21,30.19,10.0,West,5.8,-,N/A,,Clear,270,2012-11-09 20:35:00
3:55 PM,66.2,24.8,21,30.19,10.0,NW,3.5,-,N/A,,Clear,310,2012-11-09 20:55:00
4:15 PM,66.2,24.8,21,30.19,10.0,Calm,Calm,-,N/A,,Clear,0,2012-11-09 21:15:00
4:35 PM,66.2,24.8,21,30.20,10.0,NW,3.5,-,N/A,,Clear,310,2012-11-09 21:35:00
4:55 PM,62.6,26.6,26,30.20,10.0,Calm,Calm,-,N/A,,Clear,0,2012-11-09 21:55:00
5:15 PM,59.0,28.4,31,30.20,10.0,Calm,Calm,-,N/A,,Clear,0,2012-11-09 22:15:00
5:35 PM,55.4,28.4,36,30.20,10.0,Calm,Calm,-,N/A,,Clear,0,2012-11-09 22:35:00
5:55 PM,53.6,30.2,41,30.21,10.0,Calm,Calm,-,N/A,,Clear,0,2012-11-09 22:55:00
6:15 PM,51.8,30.2,44,30.21,10.0,Calm,Calm,-,N/A,,Clear,0,2012-11-09 23:15:00
6:35 PM,48.2,30.2,50,30.22,10.0,Calm,Calm,-,N/A,,Clear,0,2012-11-09 23:35:00
6:55 PM,48.2,30.2,50,30.22,10.0,Calm,Calm,-,N/A,,Clear,0,2012-11-09 23:55:00
7:15 PM,44.6,28.4,53,30.22,10.0,Calm,Calm,-,N/A,,Clear,0,2012-11-10 00:15:00
7:35 PM,44.6,28.4,53,30.23,10.0,Calm,Calm,-,N/A,,Clear,0,2012-11-10 00:35:00
7:55 PM,44.6,26.6,49,30.23,10.0,Calm,Calm,-,N/A,,Clear,0,2012-11-10 00:55:00
8:15 PM,42.8,28.4,57,30.23,10.0,Calm,Calm,-,N/A,,Clear,0,2012-11-10 01:15:00
8:35 PM,41.0,28.4,61,30.23,10.0,Calm,Calm,-,N/A,,Clear,0,2012-11-10 01:35:00
8:55 PM,41.0,28.4,61,30.24,10.0,Calm,Calm,-,N/A,,Clear,0,2012-11-10 01:55:00
9:15 PM,42.8,30.2,61,30.25,10.0,Calm,Calm,-,N/A,,Clear,0,2012-11-10 02:15:00
9:35 PM,39.2,30.2,70,30.25,10.0,Calm,Calm,-,N/A,,Clear,0,2012-11-10 02:35:00
9:55 PM,39.2,30.2,70,30.26,10.0,Calm,Calm,-,N/A,,Clear,0,2012-11-10 02:55:00
10:15 PM,37.4,28.4,70,30.26,10.0,Calm,Calm,-,N/A,,Clear,0,2012-11-10 03:15:00
10:35 PM,39.2,28.4,65,30.26,10.0,Calm,Calm,-,N/A,,Clear,0,2012-11-10 03:35:00
10:55 PM,39.2,30.2,70,30.26,10.0,Calm,Calm,-,N/A,,Clear,0,2012-11-10 03:55:00
11:15 PM,35.6,28.4,75,30.26,10.0,Calm,Calm,-,N/A,,Clear,0,2012-11-10 04:15:00
11:35 PM,37.4,28.4,70,30.26,10.0,Calm,Calm,-,N/A,,Clear,0,2012-11-10 04:35:00
11:55 PM,37.4,28.4,70,30.26,10.0,Calm,Calm,-,N/A,,Clear,0,2012-11-10 04:55:00